Simultaneous Nadir Overpasses (SNOs) Predictions

Prediction of SNOs between GOES-15 and NOAA-20 Satellite Orbit:

Table of predicted SNOs for the next 14.0 days since TLE Epoch: 6/3/2023
Index Date Time (GOES-15) GOES-15 Lat,Lon NOAA-20 Lat,Lon Distance(km) Time Diff (sec)
1 06/03/2023 11:35:19 0.02,-156.34 -0.78,-152.78 406.00 80
2 06/04/2023 23:57:19 0.02,-156.97 -0.22,-158.12 130.58 80
3 06/05/2023 23:41:14 0.00,-157.38 0.83,-153.59 431.48 80
4 06/07/2023 12:03:04 -0.04,-158.02 0.16,-158.90 99.91 80
5 06/08/2023 11:41:40 -0.01,-158.43 -0.89,-154.37 461.69 80
6 06/10/2023 00:03:39 0.04,-159.04 -0.10,-159.71 76.16 80
7 06/10/2023 23:47:35 0.02,-159.45 0.95,-155.18 485.43 80
8 06/12/2023 12:09:25 -0.06,-160.08 0.03,-160.49 46.46 80
9 06/15/2023 00:12:40 0.08,-161.09 0.05,-161.31 24.51 80
